Flag for Switzerland Weather past 2 weeks in Chur, Graubünden, Switzerland

Now
36 °F

Chilly.


Feels Like: 29 °F
Forecast: 13 / 46 °F
Wind: 9 mph from South

Location: Chur-Ems

Current Time: Oct 23, 2014 at 2:16:38 AM

Latest Report: Oct 23, 2014 at 1:00 AM


Visibility: N/A

Pressure: 30.20 "Hg

Humidity: 90%

Dew point: 33 °F

Location of ChurLocation

Historic Weather in Chur — Graph

°F

Chur temperature yesterday

Maximum temperature yesterday: 45 °F (at 12:00 AM)
Minimum temperature yesterday: 37 °F (at 10:00 PM)
Average temperature yesterday: 41 °F

Past Weeks' High & Low Weather Summary

 TemperatureHumidityPressure
High77 °F (Oct 9, 3:00 PM)96% (Oct 13, 9:00 PM)30.30 "Hg (Oct 13, 9:00 PM)
Low36 °F (Oct 23, 1:00 AM)30% (Oct 9, 3:00 PM)29.72 "Hg (Oct 21, 9:00 PM)
Average58 °F73%29.99 "Hg
* Reported Oct 8 1:00 AM — Oct 23 1:00 AM, Chur, Weather by CustomWeather, © 2014

Note: Actual official high and low records may vary slightly from our data, if they occured in-between our weather recording intervals... More about our weather records

Advertising

Chur weather history for previous 24 hours

 ConditionsComfort  
Time TempWeatherWind HumidityBarometerVisibility
1:00 AM
Oct 23
36 °FChilly.9 mph90%30.20 "HgN/A
12:00 AM39 °FChilly.5 mph88%30.18 "HgN/A
11:00 PM
Oct 22
41 °FHeavy rain. Overcast.7 mph84%30.17 "Hg3 mi
10:00 PM37 °FChilly.3 mph92%30.19 "HgN/A
9:00 PM37 °FChilly.5 mph91%30.19 "HgN/A
8:00 PM37 °FDrizzle. Low clouds.5 mph91%30.19 "Hg2 mi
7:00 PM38 °FChilly.5 mph86%30.18 "HgN/A
6:00 PM39 °FChilly.5 mph83%30.18 "HgN/A
5:00 PM39 °FDrizzle. Low clouds.5 mph84%30.18 "Hg5 mi
4:00 PM39 °FChilly.8 mph83%30.19 "HgN/A
3:00 PM39 °FChilly.13 mph82%30.19 "HgN/A
2:00 PM41 °FOvercast.8 mph69%30.17 "Hg11 mi
1:00 PM42 °FQuite cool.5 mph66%30.16 "HgN/A
12:00 PM42 °FQuite cool.12 mph66%30.16 "HgN/A
11:00 AM40 °FFog.14 mph78%30.16 "Hg2 mi
10:40 AM40 °FFog.12 mph78%30.16 "Hg2 mi
10:00 AM40 °FChilly.15 mph79%30.16 "HgN/A
9:00 AM41 °FQuite cool.17 mph74%30.10 "HgN/A
8:00 AM42 °FFog.16 mph67%30.07 "Hg2 mi
7:00 AM41 °FQuite cool.22 mph81%30.03 "HgN/A
6:00 AM42 °FQuite cool.8 mph85%30.00 "HgN/A
5:00 AM42 °FHeavy rain. Overcast.16 mph83%30.02 "Hg4 mi
4:00 AM42 °FQuite cool.6 mph85%30.03 "HgN/A
3:00 AM43 °FQuite cool.10 mph82%30.06 "HgN/A
2:00 AM43 °FRain. Overcast.8 mph88%30.09 "Hg4 mi
Weather by CustomWeather, © 2014

See weather overviewHow to use our weather pages